Location: Lombard
(41.8800°N, 88.0080°W)
Time: 23:22:54
(UTC-05:00)

Tiros 1 - Pass Details

Date: 04 February 2023
Orbit: 628 x 662 km, 48.4° (Epoch: 20 March)

Event Time Altitude Azimuth Distance (km) Brightness Sun altitude
Rises 03:12:56 0° 289° (WNW) 2,921 - -42.6°
Reaches altitude 10° 03:15:23 10° 298° (WNW) 2,017 - -42.1°
Maximum altitude 03:19:43 38° 7° (N) 977 - -41.4°
Exits shadow 03:23:56 11° 75° (ENE) 1,977 10.3 -40.6°
Drops below altitude 10° 03:24:06 10° 76° (ENE) 2,035 10.4 -40.6°
Sets 03:26:35 0° 84° (E) 2,951 11.4 -40.1°
